Overview Statistics Trail Chart Weather Telemetry Raw packets
 

This is the latest recevied weather packets stored in our database for station/object JH7UAX-10. If no packets are shown the sender has not sent any weather packets the latest 10 day(s).

<< 3 4 5 6 7 8 9 >>
Time Temp. Humidity Pressure Rain* Wind** Luminosity Snow
1788430455 20.56° C 98% 1020.5 hPa 0 mm - - -
1788429555 20.56° C 98% 1020.2 hPa 0 mm - - -
1788428671 20.56° C 98% 1020 hPa 0 mm - - -
1788427753 20.56° C 98% 1020.1 hPa 0 mm - - -
1788425954 20.56° C 97% 1019.9 hPa 0 mm - - -
1788425054 20.56° C 98% 1019.9 hPa 0 mm - - -
1788424170 20.56° C 97% 1019.9 hPa 0.25 mm - - -
1788423255 20.56° C 97% 1019.8 hPa 1.02 mm - - -
1788422370 20.56° C 97% 1019.9 hPa 5.33 mm - - -
1788421454 20.56° C 97% 1019.9 hPa 6.86 mm - - -
1788420554 20.56° C 97% 1019.9 hPa 11.18 mm - - -
1788418753 21.11° C 96% 1020.2 hPa 10.16 mm - - -
1788417855 21.11° C 96% 1019.9 hPa 8.38 mm - - -
1788416954 22.22° C 96% 1020.2 hPa 4.06 mm - - -
1788416055 22.22° C 96% 1019.9 hPa 4.32 mm - - -
1788415154 22.22° C 95% 1019.5 hPa 2.54 mm - - -
1788412455 22.78° C 93% 1020.3 hPa 0.76 mm - - -
1788411553 23.33° C 90% 1020.7 hPa 0.51 mm - - -
1788410654 23.89° C 89% 1020.7 hPa 0 mm - - -
1788409755 23.89° C 89% 1020.6 hPa 0 mm - - -
1788407954 23.89° C 90% 1021.1 hPa 0 mm - - -
1788407054 23.89° C 90% 1021.3 hPa 0 mm - - -
1788404353 23.33° C 91% 1021.2 hPa 0 mm - - -
1788403455 23.33° C 92% 1021.4 hPa 0 mm - - -
1788400755 22.78° C 93% 1021.5 hPa 0 mm - - -

* Rain latest hour (hover to see other rain measurements)
** Current wind speed in m/s (hover to see current wind gust speed)